User: anonymous   Login
Location: Dappach
(48.9767°N, 9.6998°E)
Time: 08:40:20
(UTC+00:00)
Language:

Okean 1-7 - Orbit

View from above orbital plane
View from above orbital plane
View from above satellite
View from above satellite

Ground track
Ground track

The orbit data is extracted from the following two-line orbital elements,

1 23317U 94066A   24203.94197931  .00004426  00000-0  43009-3 0  9990
2 23317  82.5343 197.1166 0020048  90.4403 269.9114 14.92236945611441
Epoch (UTC): 21 July 2024 22:36:27
Eccentricity: 0.0020048
inclination: 82.5343°
perigee height: 577 km
apogee height: 605 km
right ascension of ascending node: 197.1166°
argument of perigee: 90.4403°
revolutions per day: 14.92236945
mean anomaly at epoch: 269.9114°
orbit number at epoch: 61144

The dashed part of the orbit path shows where the satellite is in the earth's shadow,  

DLR